This demonstration page uses our WeatherBlox Daily Observations layout. Learn more.

40.92945, -100.16068

Hourly Observations for August 19, 2016

Temp ( °F °C ) Dew Point ( °F °C ) Humidity (%) Winds ( mph kmh ) Pressure ( in mb ) Visibility ( mi km ) Precip ( " mm )
12:15 am 00:15 Clear 74 23.5 61 16.2 64 64 S 10 17 29.8 1009 10 16.09344 0 0
12:35 am 00:35 Clear 72 22 61 16.3 70 70 NW 13 20 29.88 1012 10 16.09344 0 0
12:55 am 00:55 Clear 73 22.5 61 16.1 67 67 NW 6 9 29.88 1012 10 16.09344 0 0
1:15 am 01:15 Clear 73 23 61 16.2 66 66 WSW 5 7 29.88 1012 10 16.09344 0 0
1:35 am 01:35 Clear with Nearby Thunderstorms 69 20.8 62 16.7 77 77 N 6 9 29.88 1012 10 16.09344 0 0
1:55 am 01:55 Clear 68 20 63 17.3 85 85 NNE 5 7 29.88 1012 10 16.09344 0 0
2:15 am 02:15 Clear with Nearby Thunderstorms 67 19.6 64 17.5 88 88 NE 7 11 29.88 1012 10 16.09344 0 0
2:35 am 02:35 Clear 67 19.6 64 17.5 88 88 NNE 5 7 29.88 1012 10 16.09344 0 0
2:55 am 02:55 Clear with Nearby Thunderstorms 67 19.3 64 17.7 91 91 WNW 9 15 29.91 1013 10 16.09344 0 0
3:15 am 03:15 Clear 66 19.1 64 17.5 91 91 NNW 6 9 29.91 1013 10 16.09344 0 0
3:35 am 03:35 Clear 66 19.1 64 17.6 91 91 NNE 7 11 29.88 1012 10 16.09344 0 0
3:55 am 03:55 Clear with Nearby Thunderstorms 67 19.2 64 17.5 90 90 NNE 6 9 29.91 1013 10 16.09344 0 0
4:15 am 04:15 Clear 66 19.1 64 17.5 91 91 NE 3 6 29.91 1013 10 16.09344 0 0
4:35 am 04:35 Partly Cloudy 66 19 64 17.6 92 92 N 3 6 29.91 1013 10 16.09344 0 0
4:55 am 04:55 Partly Cloudy 66 19 64 17.6 92 92 N 5 7 29.91 1013 10 16.09344 0 0
5:15 am 05:15 Partly Cloudy 66 18.7 62 16.7 88 88 N 3 6 29.91 1013 10 16.09344 0 0
5:35 am 05:35 Clear 65 18.6 62 16.7 89 89 Calm 29.91 1013 10 16.09344 0 0
5:55 am 05:55 Partly Cloudy with Light Rain 65 18.5 63 17 91 91 WNW 5 7 29.91 1013 10 16.09344 0 0
6:15 am 06:15 Cloudy with Light Rain 65 18.3 63 17.1 93 93 NNE 5 7 29.91 1013 7 11.265408 0.01 0.254
6:35 am 06:35 Cloudy with Light Rain 65 18.2 62 16.8 92 92 NNE 8 13 29.91 1013 10 16.09344 0.03 0.762
6:55 am 06:55 Mostly Cloudy 64 18 62 16.5 91 91 NNE 9 15 29.88 1012 10 16.09344 0.03 0.762
7:15 am 07:15 Partly Cloudy 64 17.8 61 16.2 90 90 NE 8 13 29.88 1012 10 16.09344 0 0
7:35 am 07:35 Sunny 64 17.6 61 16 90 90 NNE 9 15 29.85 1011 10 16.09344 0 0
7:55 am 07:55 Sunny 64 17.7 61 16 90 90 NNE 9 15 29.85 1011 10 16.09344 0 0
8:15 am 08:15 Sunny 64 18 61 16.2 89 89 N 8 13 29.85 1011 10 16.09344 0 0
8:35 am 08:35 Sunny 65 18.6 62 16.5 88 88 NNW 9 15 29.85 1011 10 16.09344 0 0
8:55 am 08:55 Partly Cloudy 65 18.6 61 16.2 86 86 NNW 6 9 29.88 1012 10 16.09344 0 0
9:15 am 09:15 Mostly Cloudy 66 18.7 61 16.2 85 85 N 7 11 29.88 1012 10 16.09344 0 0
9:35 am 09:35 Mostly Cloudy with Light Rain 65 18.6 61 16.3 87 87 N 7 11 29.88 1012 10 16.09344 0 0
9:55 am 09:55 Mostly Cloudy 67 19.2 62 16.6 85 85 N 7 11 29.88 1012 10 16.09344 0 0
10:15 am 10:15 Partly Cloudy 67 19.5 62 16.6 83 83 N 7 11 29.85 1011 10 16.09344 0 0
10:35 am 10:35 Mostly Cloudy with Light Rain 66 19.1 62 16.6 86 86 N 3 6 29.91 1013 10 16.09344 0 0
10:55 am 10:55 Cloudy with Rain 66 18.9 62 16.7 87 87 NW 6 9 29.94 1014 7 11.265408 0.02 0.508
11:15 am 11:15 Cloudy with Light Rain 65 18.6 63 17 90 90 NNW 7 11 29.94 1014 10 16.09344 0.02 0.508
11:35 am 11:35 Cloudy with Light Rain 65 18.5 63 17.1 92 92 Calm 29.94 1014 7 11.265408 0.05 1.27
11:55 am 11:55 Cloudy 65 18.6 63 17 90 90 Calm 29.91 1013 10 16.09344 0.05 1.27
12:15 pm 12:15 Mostly Cloudy 65 18.6 63 17.4 93 93 Calm 29.91 1013 5 8.04672 0.03 0.762
12:35 pm 12:35 Sunny 66 18.9 64 17.5 92 92 Calm 29.91 1013 10 16.09344 0.03 0.762
12:55 pm 12:55 Sunny 67 19.4 64 17.7 90 90 Calm 29.91 1013 10 16.09344 0.03 0.762
1:15 pm 13:15 Sunny with Nearby Thunderstorms 67 19.5 64 17.7 89 89 Calm 29.91 1013 10 16.09344 0 0
1:35 pm 13:35 Partly Cloudy 67 19.5 63 17 86 86 Calm 29.91 1013 10 16.09344 0 0
1:55 pm 13:55 Partly Cloudy 67 19.6 64 18 91 91 NNW 3 6 29.85 1011 10 16.09344 0 0
2:15 pm 14:15 Sunny 68 20.1 65 18.1 88 88 N 5 7 29.85 1011 10 16.09344 0 0
2:35 pm 14:35 Partly Cloudy 70 21 64 17.7 82 82 NNE 7 11 29.85 1011 10 16.09344 0 0
2:55 pm 14:55 Mostly Cloudy 70 21.1 64 17.5 80 80 NE 7 11 29.88 1012 10 16.09344 0 0
3:15 pm 15:15 Cloudy 70 21.2 63 17.2 78 78 NNE 12 19 29.85 1011 10 16.09344 0 0
3:35 pm 15:35 Cloudy 70 21.2 62 16.6 75 75 NNE 10 17 29.85 1011 10 16.09344 0 0
3:55 pm 15:55 Cloudy 71 21.7 63 17 75 75 NNE 9 15 29.85 1011 10 16.09344 0 0
4:15 pm 16:15 Cloudy 71 21.4 62 16.7 75 75 NNE 9 15 29.83 1010 10 16.09344 0 0
4:35 pm 16:35 Cloudy 71 21.7 62 16.7 73 73 NNE 8 13 29.83 1010 10 16.09344 0 0
4:55 pm 16:55 Cloudy 72 22 62 16.4 71 71 N 10 17 29.83 1010 10 16.09344 0 0
5:15 pm 17:15 Cloudy 72 22.4 61 16.1 68 68 N 9 15 29.83 1010 10 16.09344 0 0
5:35 pm 17:35 Partly Cloudy 73 22.8 61 16.2 66 66 N 10 17 29.8 1009 10 16.09344 0 0
5:55 pm 17:55 Partly Cloudy 73 22.5 61 16.1 67 67 N 7 11 29.8 1009 10 16.09344 0 0
6:15 pm 18:15 Sunny 73 22.9 61 15.9 65 65 N 10 17 29.8 1009 10 16.09344 0 0
6:35 pm 18:35 Sunny 73 22.5 60 15.8 66 66 N 9 15 29.8 1009 10 16.09344 0 0
6:55 pm 18:55 Sunny 72 22.3 61 16.3 69 69 N 12 19 29.83 1010 10 16.09344 0 0
7:15 pm 19:15 Partly Cloudy 72 22 61 16.1 69 69 N 12 19 29.83 1010 10 16.09344 0 0
7:35 pm 19:35 Partly Cloudy 71 21.5 62 16.5 73 73 N 6 9 29.83 1010 10 16.09344 0 0
7:55 pm 19:55 Sunny 69 20.6 61 16.2 76 76 N 7 11 29.85 1011 10 16.09344 0 0
8:15 pm 20:15 Sunny 67 19.5 60 15.7 79 79 N 7 11 29.85 1011 10 16.09344 0 0
8:35 pm 20:35 Partly Cloudy 66 18.7 60 15.7 83 83 NNW 5 7 29.91 1013 10 16.09344 0 0
8:55 pm 20:55 Mostly Cloudy 65 18.1 61 16 88 88 Calm 29.91 1013 7 11.265408 0 0
9:15 pm 21:15 Cloudy 66 18.7 60 15.7 83 83 NNW 7 11 29.91 1013 10 16.09344 0 0
9:35 pm 21:35 Cloudy 66 19 58 14.6 76 76 N 8 13 29.94 1014 10 16.09344 0 0
9:55 pm 21:55 Partly Cloudy 65 18.1 57 13.9 77 77 N 9 15 29.94 1014 10 16.09344 0 0
10:15 pm 22:15 Mostly Cloudy 64 17.7 56 13.6 77 77 NNW 6 9 29.94 1014 10 16.09344 0 0
10:35 pm 22:35 Mostly Cloudy 63 17.3 56 13.3 78 78 N 12 19 29.97 1015 10 16.09344 0 0
10:55 pm 22:55 Cloudy 63 17.2 56 13.5 79 79 NNW 13 20 29.97 1015 10 16.09344 0 0
11:15 pm 23:15 Cloudy 62 16.9 56 13.4 80 80 NNW 13 20 29.97 1015 10 16.09344 0 0
11:35 pm 23:35 Cloudy 62 16.8 55 13 78 78 NNW 20 31 29.97 1015 10 16.09344 0 0
11:55 pm 23:55 Cloudy 62 16.5 55 13 80 80 NNW 14 22 30 1016 10 16.09344 0 0

Powered by AerisWeather